#timestamp,LO_Frequency,Hit 
1503190815.2,286047003.2,N
1503190835.1,286047002.1,N
1503190836.0,286047002.1,N
1503190855.8,286046998.5,N
1503190875.6,286046998.4,N
1503190895.5,286046997.8,N
1503190915.3,286046999.1,N
1503190935.1,286047000.7,N
1503190955.9,286047000.9,N
1503190975.7,286046997.5,N
1503190995.5,286046996.2,N
1503191015.4,286046995.1,N
1503191035.2,286046995.4,N
1503191055.0,286046995.0,N
1503191055.9,286046995.0,N
1503191075.8,286046993.7,N
1503191095.6,286046995.9,N
1503191115.4,286046997.7,N
1503191135.3,286046996.8,N
1503191155.1,286046998.1,N
1503191156.0,286046998.1,N
1503191175.8,286046997.8,N
1503191195.7,286046996.9,N
1503191215.5,286047001.1,N
1503191235.3,286047000.6,N
1503191255.1,286047000.5,N
1503191275.9,286046998.1,N
1503191295.7,286046996.6,N
1503191315.5,286046996.5,N
1503191335.4,286047002.4,N
1503191355.2,286047002.0,N
1503191375.0,286047004.4,N
1503191375.9,286047004.4,N
1503191395.8,286047004.6,N
1503191415.6,286047006.0,N
1503191435.4,286047001.6,N
1503191455.3,286047002.0,N
1503191475.1,286047004.0,N
1503191476.0,286047004.0,N
1503191495.8,286047003.0,N
1503191515.7,286047004.3,N
1503191535.5,286047004.5,N
1503191555.3,286047006.1,N
1503191575.2,286047006.6,N
1503191595.9,286047008.8,N
1503191615.7,286047010.5,N
1503191635.6,286047006.7,N
1503191655.4,286047010.1,N
1503191675.2,286047012.4,P
1503191695.1,286047004.5,N
1503191696.0,286047004.5,N
1503191715.8,286047003.9,N
1503191735.6,286047001.6,N
1503191755.5,286047004.1,N
1503191775.3,286047004.1,N
1503191795.1,286047004.2,N
1503191815.8,286047003.2,N
1503191835.7,286047003.7,N
1503191855.5,286047005.2,N
1503191875.3,286047007.1,N
1503191895.2,286047005.5,N
1503191915.9,286047004.2,N
1503191935.7,286047002.5,N
1503191955.6,286047004.0,N
1503191975.4,286047001.6,N
1503191995.2,286047003.2,N
1503192015.1,286047005.9,N
1503192016.0,286047005.9,N
1503192035.8,286047005.0,N
1503192055.6,286047006.9,P
1503192075.5,286047003.5,N
1503192095.3,286047007.2,P
1503192115.1,286047009.1,P
1503192135.9,286046998.3,N
1503192155.7,286046998.8,N
1503192175.5,286046999.6,N
1503192195.4,286047002.6,N
1503192215.2,286047000.1,N
1503192235.0,286047001.2,N
1503192235.9,286047001.2,N
1503192255.8,286047000.8,N
1503192275.6,286046999.9,N
1503192295.4,286047000.7,N
1503192315.2,286047001.2,N
1503192335.1,286046998.4,N
1503192336.0,286046998.4,N
1503192355.8,286047000.2,N
1503192375.6,286046998.5,N
1503192395.5,286046995.5,N
1503192415.3,286046998.0,N
1503192435.1,286046998.5,N
1503192455.9,286047002.6,N
1503192475.7,286046998.4,N
1503192495.5,286047000.0,N
1503192515.4,286047000.7,N
1503192535.2,286047000.5,N
1503192555.0,286047002.2,N
1503192555.9,286047002.2,N
1503192575.8,286047002.1,N
1503192595.6,286047000.7,N
1503192615.4,286046999.3,N
1503192635.2,286047000.8,N
1503192655.1,286046998.4,N
1503192656.0,286046998.4,N
1503192675.8,286046999.2,N
1503192695.6,286047000.3,N
1503192715.5,286046998.1,N
1503192735.3,286046998.3,N
1503192755.1,286046997.2,N
1503192775.9,286046997.1,N
1503192795.7,286046995.6,N
1503192815.5,286046994.7,N
1503192835.4,286046995.0,N
1503192855.2,286046997.8,N
1503192875.0,286046997.4,N
1503192875.9,286046997.4,N
1503192895.8,286046997.3,N
1503192915.6,286046998.9,N
1503192935.4,286047001.2,N
1503192955.2,286047000.0,N
1503192975.1,286046998.4,N
1503192976.0,286046998.4,N
1503192995.8,286047000.3,N
1503193015.6,286046997.1,N
1503193035.5,286046998.6,N
1503193055.3,286047000.4,N
1503193075.1,286047004.2,N
1503193095.9,286047003.5,N
1503193115.7,286047003.4,N
1503193135.5,286047004.4,N
1503193155.4,286047002.9,N
1503193175.2,286047005.9,N
1503193195.0,286047004.8,N
1503193195.9,286047004.8,N
1503193215.8,286047004.7,N
1503193235.6,286047003.5,N
1503193255.4,286047001.4,N
1503193275.3,286047003.5,N
1503193295.1,286047006.7,N
1503193296.0,286047006.7,N
1503193315.8,286047008.4,N
1503193335.7,286047003.3,N
1503193355.5,286047004.0,N
1503193375.3,286047005.7,N
1503193395.1,286047007.5,N
1503193415.9,286047007.9,N
1503193435.7,286047010.1,P
1503193455.6,286047007.2,N
1503193475.4,286047005.0,N
1503193495.2,286047007.1,N
1503193515.0,286047006.1,N
1503193515.9,286047006.1,N
1503193535.8,286047005.1,N
1503193555.6,286047005.2,N
1503193575.4,286047005.0,N
1503193595.3,286047004.6,N
1503193615.1,286047004.5,N
1503193635.8,286047004.7,N
1503193655.7,286047003.6,N
1503193675.5,286047005.1,N
1503193695.3,286047004.4,N
1503193715.2,286047002.0,N
1503193735.9,286047000.2,N
1503193755.7,286047002.5,N
1503193775.6,286047001.9,N
1503193795.4,286047001.6,N
1503193815.2,286047002.8,N
1503193835.0,286047002.8,N
1503193835.9,286047002.8,N
1503193855.8,286047001.2,N
1503193875.6,286047001.7,N
1503193895.4,286047001.3,N
1503193915.3,286047003.3,N
1503193935.1,286047005.9,N
1503193955.8,286047004.9,N
1503193975.7,286047007.0,P
1503193995.5,286047002.8,N
1503194015.3,286047002.7,N
1503194035.2,286047001.6,N
1503194055.9,286047002.3,N
1503194075.7,286047003.8,N
1503194095.6,286047001.3,N
1503194115.4,286047002.3,N
1503194135.2,286047004.0,N
1503194155.1,286046998.3,N
1503194156.0,286046998.3,N
1503194175.8,286047000.7,N
1503194195.6,286047001.9,N
1503194215.4,286047004.0,N
1503194235.3,286047000.8,N
1503194255.2,286046994.9,N
1503194275.0,286046995.0,N
1503194275.9,286046995.0,N
1503194295.8,286046997.9,N
1503194315.6,286046996.5,N
1503194335.4,286046998.6,N
1503194355.3,286046999.1,N
1503194375.1,286046995.2,N
1503194376.0,286046995.2,N
1503194395.8,286046995.9,N
